Weather History for KSLO - March, 2014

Change the Weather History Date:

Saturday, March 8, 2014

  Actual Average Record
Temperature  
Mean Temperature 38 °F -  
Max Temperature 46 °F 53 °F 81 °F (1974)
Min Temperature 31 °F 31 °F 5 °F (1960)
Degree Days  
Heating Degree Days 26    
Moisture  
Dew Point 34 °F    
Average Humidity 82    
Maximum Humidity 94    
Minimum Humidity 75    
Precipitation  
Precipitation 0.00 in - - ()
Sea Level Pressure  
Sea Level Pressure 30.13 in    
Wind  
Wind Speed 7 mph (NW)    
Max Wind Speed 15 mph    
Max Gust Speed 10 mph    
Visibility 6 miles    
Events      
Averages and records for this station are not official NWS values.
T = Trace of Precipitation, MM = Missing Value Source: NWS Daily Summary

Daily Weather History Graph

Daily Weather History Graph

Search for Another Location

Airport or City:

Trip Planner

Search our weather history database for the weather conditions in past years. The results will help you decide how hot, cold, wet, or windy it might be!

Date:

Astronomy

Mar. 08, 2014 Rise Set
Actual Time 6:17 AM CST 5:55 PM CST
Civil Twilight 5:51 AM CST 6:22 PM CST
Nautical Twilight 5:20 AM CST 6:53 PM CST
Astronomical Twilight 4:49 AM CST 7:24 PM CST
Moon 11:03 AM CST (3/8) 12:49 AM CST (3/8)
Length of Visible Light 12h 31m
Length of Day
11h 38m
First Quarter, 52% of the Moon is Illuminated
Mar 8
First Quarter
Mar 16
Full
Mar 23
Last Quarter
Mar 30
New
Apr 7
First Quarter

Hourly Weather History & Observations

Time (CST) Temp. Windchill Dew Point Humidity Pressure Visibility Wind Dir Wind Speed Gust Speed Precip Events Conditions
12:15 AM 39.7 °F 34.9 °F 33.4 °F 78% 29.99 in 10.0 mi SSW 6.9 mph - N/A   Clear
12:35 AM 39.2 °F 34.2 °F 33.3 °F 79% 29.99 in 10.0 mi SSW 6.9 mph - N/A   Clear
12:55 AM 37.9 °F 33.5 °F 32.9 °F 82% 30.00 in 10.0 mi SSW 5.8 mph - N/A   Clear
1:15 AM 38.1 °F 34.6 °F 32.9 °F 81% 30.00 in 10.0 mi SSW 4.6 mph - N/A   Clear
1:35 AM 38.3 °F 34.8 °F 32.9 °F 81% 30.00 in 10.0 mi South 4.6 mph - N/A   Clear
1:55 AM 38.8 °F 34.6 °F 32.9 °F 79% 29.99 in 10.0 mi SSW 5.8 mph - N/A   Clear
2:15 AM 38.5 °F 33.4 °F 32.9 °F 80% 30.00 in 10.0 mi SW 6.9 mph - N/A   Clear
2:35 AM 38.7 °F 34.3 °F 32.9 °F 80% 29.99 in 10.0 mi SW 5.8 mph - N/A   Clear
2:55 AM 38.5 °F 34.1 °F 32.9 °F 80% 29.99 in 10.0 mi SSW 5.8 mph - N/A   Clear
3:15 AM 38.5 °F 34.1 °F 32.5 °F 79% 29.98 in 10.0 mi SSW 5.8 mph - N/A   Clear
3:35 AM 37.4 °F 33.8 °F 32.4 °F 82% 29.99 in 10.0 mi SSW 4.6 mph - N/A   Clear
3:55 AM 38.1 °F 33.7 °F 32.5 °F 80% 30.00 in 10.0 mi SW 5.8 mph - N/A   Clear
4:15 AM 38.3 °F 35.9 °F 32.9 °F 81% 30.00 in 10.0 mi WSW 3.5 mph - N/A   Scattered Clouds
4:35 AM 38.7 °F 35.2 °F 32.9 °F 80% 30.02 in 10.0 mi West 4.6 mph - N/A   Mostly Cloudy
4:55 AM 38.3 °F 34.8 °F 32.9 °F 81% 30.03 in 7.0 mi West 4.6 mph - N/A   Overcast
5:15 AM 37.4 °F - 32.9 °F 84% 30.03 in 7.0 mi Calm Calm - N/A   Overcast
5:40 AM 36.5 °F 32.7 °F 32.4 °F 85% 30.03 in 7.0 mi SW 4.6 mph - N/A   Scattered Clouds
5:55 AM 36.7 °F 34.1 °F 32.9 °F 86% 30.03 in 7.0 mi SSW 3.5 mph - N/A   Scattered Clouds
6:15 AM 36.5 °F - 32.7 °F 86% 30.03 in 7.0 mi Calm Calm - N/A   Scattered Clouds
6:35 AM 37.2 °F 34.7 °F 32.7 °F 84% 30.04 in 7.0 mi SW 3.5 mph - N/A   Mostly Cloudy
6:55 AM 37.2 °F - 32.9 °F 84% 30.03 in 5.0 mi Calm Calm - N/A   Overcast
7:15 AM 37.4 °F - 32.9 °F 84% 30.03 in 5.0 mi Calm Calm - N/A   Mostly Cloudy
7:35 AM 38.1 °F 35.7 °F 34.0 °F 85% 30.05 in 5.0 mi West 3.5 mph - N/A   Overcast
7:55 AM 38.8 °F 36.5 °F 33.8 °F 82% 30.05 in 5.0 mi West 3.5 mph - N/A   Haze
8:15 AM 39.2 °F 35.0 °F 34.2 °F 82% 30.06 in 5.0 mi NW 5.8 mph - N/A   Haze
8:35 AM 40.5 °F 35.8 °F 35.1 °F 81% 30.05 in 5.0 mi NNW 6.9 mph - N/A   Haze
8:55 AM 40.6 °F 36.7 °F 35.1 °F 80% 30.06 in 5.0 mi NNW 5.8 mph - N/A   Haze
9:20 AM 41.5 °F 36.4 °F 35.6 °F 79% 30.08 in 5.0 mi NW 8.1 mph - N/A   Haze
9:35 AM 41.7 °F 36.7 °F 35.8 °F 79% 30.08 in 4.0 mi NNW 8.1 mph - N/A   Haze
9:55 AM 41.9 °F 36.3 °F 36.3 °F 81% 30.09 in 4.0 mi NNW 9.2 mph - N/A   Haze
10:15 AM 42.4 °F 37.0 °F 36.0 °F 78% 30.10 in 4.0 mi NNW 9.2 mph - N/A   Haze
10:35 AM 43.2 °F 38.4 °F 36.9 °F 78% 30.11 in 4.0 mi NW 8.1 mph - N/A   Haze
10:55 AM 42.8 °F 37.5 °F 36.9 °F 80% 30.12 in 4.0 mi NW 9.2 mph - N/A   Haze
11:15 AM 43.2 °F 37.4 °F 37.0 °F 79% 30.13 in 4.0 mi NNW 10.4 mph - N/A   Haze
11:35 AM 44.2 °F 38.4 °F 37.6 °F 77% 30.14 in 4.0 mi NW 11.5 mph - N/A   Haze
11:55 AM 45.1 °F 41.4 °F 38.1 °F 76% 30.13 in 4.0 mi NNW 6.9 mph 10.4 mph N/A   Haze
12:15 PM 46.2 °F 40.5 °F 39.2 °F 76% 30.13 in 4.0 mi NW 12.7 mph - N/A   Haze
12:35 PM 46.0 °F 39.6 °F 38.7 °F 75% 30.13 in 4.0 mi NNW 15.0 mph - N/A   Haze
12:55 PM 45.7 °F 39.1 °F 38.8 °F 77% 30.12 in 3.0 mi NNW 15.0 mph - N/A   Haze
1:15 PM 45.0 °F 38.9 °F 38.7 °F 79% 30.13 in 3.0 mi North 12.7 mph - N/A   Haze
1:35 PM 45.3 °F 39.3 °F 38.5 °F 77% 30.12 in 3.0 mi North 12.7 mph - N/A   Haze
1:55 PM 44.6 °F 37.8 °F 38.1 °F 78% 30.12 in 3.0 mi North 15.0 mph - N/A   Haze
2:15 PM 44.6 °F 38.4 °F 37.4 °F 76% 30.12 in 3.0 mi NNW 12.7 mph - N/A   Haze
2:35 PM 44.8 °F 38.7 °F 38.1 °F 77% 30.13 in 3.0 mi North 12.7 mph - N/A   Haze
2:55 PM 45.0 °F 41.2 °F 37.6 °F 75% 30.14 in 4.0 mi NNW 6.9 mph - N/A   Haze
3:15 PM 44.8 °F 39.4 °F 37.4 °F 75% 30.15 in 4.0 mi North 10.4 mph - N/A   Haze
3:35 PM 44.1 °F 37.7 °F 37.4 °F 77% 30.15 in 4.0 mi NNW 12.7 mph - N/A   Haze
3:55 PM 43.3 °F 36.5 °F 37.4 °F 80% 30.16 in 4.0 mi NNW 13.8 mph - N/A   Haze
4:15 PM 42.1 °F 36.1 °F 36.5 °F 81% 30.17 in 3.0 mi NNW 10.4 mph - N/A   Haze
4:35 PM 41.2 °F 34.1 °F 35.8 °F 81% 30.18 in 3.0 mi North 12.7 mph - N/A   Haze
4:55 PM 40.3 °F 33.0 °F 35.4 °F 83% 30.19 in 4.0 mi North 12.7 mph - N/A   Haze
5:15 PM 39.6 °F 33.5 °F 34.7 °F 83% 30.21 in 5.0 mi North 9.2 mph - N/A   Haze
5:35 PM 38.8 °F 31.6 °F 34.2 °F 83% 30.21 in 5.0 mi North 11.5 mph - N/A   Haze
5:55 PM 38.5 °F 32.1 °F 33.8 °F 83% 30.23 in 7.0 mi North 9.2 mph - N/A   Overcast
6:15 PM 37.6 °F 29.6 °F 33.3 °F 84% 30.24 in 7.0 mi North 12.7 mph - N/A   Overcast
6:35 PM 37.4 °F 30.8 °F 33.1 °F 84% 30.25 in 7.0 mi North 9.2 mph - N/A   Overcast
6:55 PM 37.4 °F 30.3 °F 32.9 °F 84% 30.25 in 7.0 mi North 10.4 mph - N/A   Overcast
7:20 PM 36.9 °F 29.6 °F 32.5 °F 84% 30.26 in 7.0 mi North 10.4 mph - N/A   Overcast
7:35 PM 36.5 °F 29.7 °F 32.4 °F 85% 30.26 in 7.0 mi North 9.2 mph - N/A   Overcast
7:55 PM 36.5 °F 30.3 °F 32.2 °F 84% 30.26 in 7.0 mi North 8.1 mph - N/A   Overcast
8:15 PM 36.3 °F 29.5 °F 32.0 °F 84% 30.26 in 10.0 mi North 9.2 mph - N/A   Mostly Cloudy
8:35 PM 35.6 °F 29.9 °F 31.8 °F 86% 30.26 in 7.0 mi North 6.9 mph - N/A   Scattered Clouds
8:55 PM 34.9 °F 29.0 °F 31.5 °F 87% 30.27 in 7.0 mi North 6.9 mph - N/A   Clear
9:15 PM 34.3 °F 30.2 °F 31.1 °F 88% 30.27 in 7.0 mi North 4.6 mph - N/A   Clear
9:35 PM 33.3 °F 28.9 °F 31.1 °F 92% 30.28 in 7.0 mi North 4.6 mph - N/A   Scattered Clouds
9:55 PM 34.7 °F 30.6 °F 31.8 °F 89% 30.29 in 7.0 mi North 4.6 mph - N/A   Mostly Cloudy
10:15 PM 34.5 °F 30.4 °F 31.6 °F 89% 30.30 in 7.0 mi NNW 4.6 mph - N/A   Overcast
10:35 PM 33.3 °F - 30.9 °F 91% 30.30 in 7.0 mi Calm Calm - N/A   Mostly Cloudy
11:00 PM 33.3 °F - 31.1 °F 92% 30.30 in 7.0 mi Calm Calm - N/A   Clear
11:15 PM 33.1 °F - 31.1 °F 92% 30.30 in 7.0 mi Calm Calm - N/A   Clear
11:35 PM 31.6 °F - 29.8 °F 93% 30.30 in 5.0 mi Calm Calm - N/A   Clear
11:55 PM 31.1 °F 27.7 °F 29.7 °F 94% 30.30 in 4.0 mi North 3.5 mph - N/A   Scattered Clouds